| time (UTC) | temp C | wind direction | speed KPH | gust KPH | rain 1hr cm | rain 24hr cm | rain mn cm | humidity % | barometer mb |
| 20260507155516 | 15 | 158 | 4.8 | 8.0 | 0.00 | 0.00 | 0.00 | 54 | |
| 20260507154517 | 15 | 113 | 6.4 | 12.9 | 0.00 | 0.00 | 0.00 | 55 | |
| 20260507153517 | 14 | 158 | 3.2 | 6.4 | 0.00 | 0.00 | 0.00 | 55 | |
| 20260507152517 | 15 | 113 | 4.8 | 9.7 | 0.00 | 0.00 | 0.00 | 54 | |
| 20260507151516 | 14 | 135 | 4.8 | 8.0 | 0.00 | 0.00 | 0.00 | 54 | |
| 20260507150516 | 13 | 180 | 6.4 | 9.7 | 0.00 | 0.00 | 0.00 | 55 | |
| 20260507145517 | 13 | 158 | 6.4 | 8.0 | 0.00 | 0.00 | 0.00 | 55 | |
| 20260507144516 | 13 | 180 | 4.8 | 8.0 | 0.00 | 0.00 | 0.00 | 56 | |
| 20260507143517 | 13 | 158 | 8.0 | 12.9 | 0.00 | 0.00 | 0.00 | 55 | |
| 20260507142516 | 13 | 180 | 3.2 | 4.8 | 0.00 | 0.00 | 0.00 | 54 | |
| 20260507141516 | 13 | 158 | 4.8 | 8.0 | 0.00 | 0.00 | 0.00 | 56 | |
| 20260507140517 | 13 | 225 | 4.8 | 8.0 | 0.00 | 0.00 | 0.00 | 58 | |
| 20260507135516 | 13 | 225 | 4.8 | 8.0 | 0.00 | 0.00 | 0.00 | 56 | |
| 20260507134516 | 13 | 203 | 4.8 | 8.0 | 0.00 | 0.00 | 0.00 | 56 | |
| 20260507133536 | 13 | 158 | 1.6 | 4.8 | 0.00 | 0.00 | 0.00 | 56 | |
| 20260507132516 | 13 | 225 | 8.0 | 11.3 | 0.00 | 0.00 | 0.00 | 56 | |
| 20260507131516 | 14 | 180 | 3.2 | 6.4 | 0.00 | 0.00 | 0.00 | 53 | |
| 20260507130516 | 14 | 203 | 4.8 | 8.0 | 0.00 | 0.00 | 0.00 | 52 | |
| 20260507125516 | 13 | 180 | 8.0 | 11.3 | 0.00 | 0.00 | 0.00 | 56 | |
| 20260507124516 | 13 | 113 | 3.2 | 4.8 | 0.00 | 0.00 | 0.00 | 59 | |
| 20260507123516 | 13 | 135 | 3.2 | 4.8 | 0.00 | 0.00 | 0.00 | 59 | |
| 20260507122516 | 13 | 180 | 3.2 | 8.0 | 0.00 | 0.00 | 0.00 | 60 | |
| 20260507121516 | 13 | 180 | 6.4 | 11.3 | 0.00 | 0.00 | 0.00 | 60 | |
| 20260507120536 | 13 | 135 | 4.8 | 9.7 | 0.00 | 0.00 | 0.00 | 59 | |
| 20260507115516 | 13 | 158 | 6.4 | 9.7 | 0.00 | 0.00 | 0.00 | 62 | |
| 20260507114516 | 13 | 180 | 3.2 | 9.7 | 0.00 | 0.00 | 0.00 | 63 | |
| 20260507113516 | 13 | 135 | 3.2 | 8.0 | 0.00 | 0.00 | 0.00 | 64 | |
| 20260507112516 | 13 | 180 | 6.4 | 11.3 | 0.00 | 0.00 | 0.00 | 65 | |
| 20260507111516 | 12 | 180 | 6.4 | 9.7 | 0.00 | 0.00 | 0.00 | 66 | |
| 20260507110516 | 12 | 180 | 4.8 | 8.0 | 0.00 | 0.00 | 0.00 | 67 | |
| 20260507105516 | 12 | 158 | 6.4 | 8.0 | 0.00 | 0.00 | 0.00 | 69 | |
| 20260507104516 | 12 | 135 | 4.8 | 8.0 | 0.00 | 0.00 | 0.00 | 70 | |
| 20260507103516 | 12 | 135 | 4.8 | 9.7 | 0.00 | 0.00 | 0.00 | 71 | |
| 20260507102536 | 12 | 180 | 3.2 | 8.0 | 0.00 | 0.00 | 0.00 | 71 | |
| 20260507101516 | 11 | 135 | 4.8 | 8.0 | 0.00 | 0.00 | 0.00 | 72 | |
| 20260507100536 | 11 | 180 | 3.2 | 4.8 | 0.00 | 0.00 | 0.00 | 73 | |
| 20260507095516 | 11 | 158 | 3.2 | 6.4 | 0.00 | 0.00 | 0.00 | 74 | |
| 20260507094516 | 10 | 135 | 4.8 | 6.4 | 0.00 | 0.00 | 0.00 | 75 | |
| 20260507093516 | 11 | 203 | 1.6 | 3.2 | 0.00 | 0.00 | 0.00 | 76 | |
| 20260507092556 | 10 | 158 | 3.2 | 6.4 | 0.00 | 0.00 | 0.00 | 77 | |
| 20260507091516 | 10 | 180 | 6.4 | 11.3 | 0.00 | 0.00 | 0.00 | 77 | |
| 20260507090516 | 10 | 225 | 4.8 | 11.3 | 0.00 | 0.00 | 0.00 | 78 | |
| 20260507085516 | 10 | 135 | 6.4 | 12.9 | 0.00 | 0.00 | 0.00 | 79 | |
| 20260507084519 | 10 | 158 | 4.8 | 8.0 | 0.00 | 0.00 | 0.00 | 79 | |
| 20260507083516 | 10 | 158 | 4.8 | 9.7 | 0.00 | 0.00 | 0.00 | 80 | |
| 20260507082516 | 10 | 135 | 1.6 | 3.2 | 0.00 | 0.00 | 0.00 | 81 | |
| 20260507081516 | 9 | 158 | 6.4 | 9.7 | 0.00 | 0.00 | 0.00 | 81 | |
| 20260507080516 | 9 | 135 | 3.2 | 4.8 | 0.00 | 0.00 | 0.00 | 83 | |
| 20260507075516 | 9 | 158 | 3.2 | 8.0 | 0.00 | 0.00 | 0.00 | 84 | |
| 20260507074516 | 8 | 158 | 3.2 | 6.4 | 0.00 | 0.00 | 0.00 | 84 | |
| 20260507073515 | 8 | 203 | 1.6 | 6.4 | 0.00 | 0.00 | 0.00 | 84 | |
| 20260507072516 | 8 | 158 | 4.8 | 8.0 | 0.00 | 0.00 | 0.00 | 83 | |
| 20260507071517 | 8 | 0.0 | 3.2 | 0.00 | 0.00 | 0.00 | 86 | ||
| 20260507070516 | 8 | 158 | 6.4 | 11.3 | 0.00 | 0.00 | 0.00 | 87 | |
| 20260507065518 | 7 | 158 | 1.6 | 4.8 | 0.00 | 0.00 | 0.00 | 88 | |
| 20260507064516 | 7 | 180 | 4.8 | 6.4 | 0.00 | 0.00 | 0.00 | 88 | |
| 20260507063517 | 7 | 0.0 | 1.6 | 0.00 | 0.00 | 0.00 | 91 | ||
| 20260507062518 | 6 | 0.0 | 6.4 | 0.00 | 0.00 | 0.00 | 93 | ||
| 20260507061517 | 5 | 0.0 | 0.0 | 0.00 | 0.00 | 0.00 | 95 | ||
| 20260507060518 | 5 | 0.0 | 0.0 | 0.00 | 0.00 | 0.00 | 95 | ||
| 20260507055558 | 3 | 0.0 | 1.6 | 0.00 | 0.00 | 0.00 | 95 | ||
| 20260507054539 | 3 | 0.0 | 1.6 | 0.00 | 0.00 | 0.00 | 95 | ||
| 20260507053517 | 2 | 0.0 | 0.0 | 0.00 | 0.00 | 0.00 | 95 | ||
| 20260507052517 | 2 | 0.0 | 1.6 | 0.00 | 0.00 | 0.00 | 95 | ||
| 20260507051517 | 2 | 0.0 | 0.0 | 0.00 | 0.00 | 0.00 | 95 | ||
| 20260507050517 | 2 | 0.0 | 0.0 | 0.00 | 0.00 | 0.00 | 95 | ||
| 20260507045517 | 2 | 0.0 | 1.6 | 0.00 | 0.00 | 0.00 | 95 | ||
| 20260507044537 | 2 | 0.0 | 1.6 | 0.00 | 0.00 | 0.00 | 95 | ||
| 20260507043517 | 1 | 0.0 | 1.6 | 0.00 | 0.00 | 0.00 | 95 | ||
| 20260507042517 | 1 | 0.0 | 0.0 | 0.00 | 0.00 | 0.00 | 95 | ||
| 20260507041517 | 2 | 0.0 | 0.0 | 0.00 | 0.00 | 0.00 | 95 | ||
| 20260507040537 | 2 | 0.0 | 1.6 | 0.00 | 0.00 | 0.00 | 95 | ||
| 20260507035558 | 2 | 0.0 | 0.0 | 0.00 | 0.00 | 0.00 | 95 | ||
| 20260507034517 | 2 | 0.0 | 0.0 | 0.00 | 0.00 | 0.00 | 95 | ||
| 20260507033517 | 1 | 0.0 | 0.0 | 0.00 | 0.00 | 0.00 | 95 | ||
| 20260507032517 | 1 | 0.0 | 0.0 | 0.00 | 0.00 | 0.00 | 95 | ||
| 20260507031517 | 1 | 0.0 | 0.0 | 0.00 | 0.00 | 0.00 | 95 | ||
| 20260507030517 | 1 | 0.0 | 0.0 | 0.00 | 0.00 | 0.00 | 95 | ||
| 20260507025517 | 1 | 0.0 | 0.0 | 0.00 | 0.00 | 0.00 | 95 | ||
| 20260507024537 | 1 | 0.0 | 0.0 | 0.00 | 0.00 | 0.00 | 94 | ||
| 20260507023517 | 2 | 0.0 | 0.0 | 0.00 | 0.00 | 0.00 | 95 | ||
| 20260507022517 | 2 | 0.0 | 0.0 | 0.00 | 0.00 | 0.00 | 95 | ||
| 20260507021517 | 2 | 0.0 | 0.0 | 0.00 | 0.00 | 0.00 | 95 | ||
| 20260507020517 | 2 | 0.0 | 0.0 | 0.00 | 0.00 | 0.00 | 94 | ||
| 20260507015517 | 2 | 0.0 | 0.0 | 0.00 | 0.00 | 0.00 | 94 | ||
| 20260507014517 | 2 | 0.0 | 0.0 | 0.00 | 0.00 | 0.00 | 95 | ||
| 20260507013517 | 2 | 0.0 | 0.0 | 0.00 | 0.00 | 0.00 | 94 | ||
| 20260507012537 | 2 | 0.0 | 0.0 | 0.00 | 0.00 | 0.00 | 94 | ||
| 20260507011517 | 2 | 0.0 | 0.0 | 0.00 | 0.00 | 0.00 | 94 | ||
| 20260507010517 | 2 | 0.0 | 0.0 | 0.00 | 0.00 | 0.00 | 94 | ||
| 20260507005517 | 2 | 0.0 | 0.0 | 0.00 | 0.00 | 0.00 | 94 | ||
| 20260507004537 | 2 | 0.0 | 0.0 | 0.00 | 0.00 | 0.00 | 94 | ||
| 20260507003517 | 2 | 0.0 | 0.0 | 0.00 | 0.00 | 0.00 | 94 | ||
| 20260507002517 | 2 | 0.0 | 0.0 | 0.00 | 0.00 | 0.00 | 94 | ||
| 20260507001517 | 2 | 0.0 | 0.0 | 0.00 | 0.00 | 0.00 | 94 | ||
| 20260507000517 | 2 | 0.0 | 0.0 | 0.00 | 0.00 | 0.00 | 93 | ||
| 20260506235516 | 3 | 0.0 | 0.0 | 0.00 | 0.00 | 0.00 | 93 | ||
| 20260506234517 | 3 | 0.0 | 0.0 | 0.00 | 0.00 | 0.00 | 93 | ||
| 20260506233516 | 3 | 0.0 | 0.0 | 0.00 | 0.00 | 0.00 | 93 | ||
| 20260506232517 | 3 | 0.0 | 0.0 | 0.00 | 0.00 | 0.00 | 93 | ||
| 20260506231517 | 3 | 0.0 | 0.0 | 0.00 | 0.00 | 0.00 | 91 | ||
| 20260506230516 | 3 | 0.0 | 0.0 | 0.00 | 0.00 | 0.00 | 91 | ||
| 20260506225537 | 3 | 0.0 | 0.0 | 0.00 | 0.00 | 0.00 | 91 | ||
| 20260506224536 | 3 | 0.0 | 0.0 | 0.00 | 0.00 | 0.00 | 91 | ||
| 20260506223516 | 4 | 0.0 | 1.6 | 0.00 | 0.00 | 0.00 | 90 | ||
| 20260506222517 | 4 | 0.0 | 0.0 | 0.00 | 0.00 | 0.00 | 90 | ||
| 20260506221536 | 5 | 0.0 | 0.0 | 0.00 | 0.00 | 0.00 | 89 | ||
| 20260506220516 | 5 | 0.0 | 0.0 | 0.00 | 0.00 | 0.00 | 89 | ||
| 20260506215516 | 5 | 0.0 | 0.0 | 0.00 | 0.00 | 0.00 | 88 | ||
| 20260506214516 | 5 | 0.0 | 1.6 | 0.00 | 0.00 | 0.00 | 88 | ||
| 20260506213556 | 5 | 68 | 1.6 | 3.2 | 0.00 | 0.00 | 0.00 | 87 | |
| 20260506212537 | 5 | 0.0 | 1.6 | 0.00 | 0.00 | 0.00 | 87 | ||
| 20260506211516 | 6 | 90 | 1.6 | 3.2 | 0.00 | 0.00 | 0.00 | 86 | |
| 20260506210517 | 6 | 68 | 3.2 | 4.8 | 0.00 | 0.00 | 0.00 | 86 | |
| 20260506205536 | 6 | 68 | 3.2 | 3.2 | 0.00 | 0.00 | 0.00 | 85 | |
| 20260506204516 | 6 | 90 | 1.6 | 3.2 | 0.00 | 0.00 | 0.00 | 84 | |
| 20260506203516 | 6 | 68 | 3.2 | 4.8 | 0.00 | 0.00 | 0.00 | 84 | |
| 20260506202516 | 6 | 68 | 4.8 | 6.4 | 0.00 | 0.00 | 0.00 | 83 | |
| 20260506201516 | 7 | 68 | 1.6 | 6.4 | 0.00 | 0.00 | 0.00 | 82 | |
| 20260506200517 | 7 | 68 | 3.2 | 4.8 | 0.00 | 0.00 | 0.00 | 81 | |
| 20260506195516 | 7 | 68 | 3.2 | 4.8 | 0.00 | 0.00 | 0.00 | 80 | |
| 20260506194516 | 7 | 68 | 3.2 | 6.4 | 0.00 | 0.00 | 0.00 | 79 | |
| 20260506193516 | 7 | 68 | 4.8 | 8.0 | 0.00 | 0.00 | 0.00 | 78 | |
| 20260506192516 | 8 | 68 | 8.0 | 11.3 | 0.00 | 0.00 | 0.00 | 78 | |
| 20260506191516 | 8 | 68 | 6.4 | 11.3 | 0.00 | 0.00 | 0.00 | 78 | |
| 20260506190516 | 8 | 68 | 4.8 | 9.7 | 0.00 | 0.00 | 0.00 | 78 | |
| 20260506185516 | 8 | 68 | 4.8 | 8.0 | 0.00 | 0.00 | 0.00 | 77 | |
| 20260506184516 | 8 | 68 | 4.8 | 6.4 | 0.00 | 0.00 | 0.00 | 77 | |
| 20260506183536 | 8 | 68 | 4.8 | 8.0 | 0.00 | 0.00 | 0.00 | 76 | |
| 20260506182516 | 8 | 90 | 1.6 | 4.8 | 0.00 | 0.00 | 0.00 | 76 | |
| 20260506181536 | 8 | 68 | 8.0 | 11.3 | 0.00 | 0.00 | 0.00 | 75 | |
| 20260506180516 | 9 | 68 | 6.4 | 11.3 | 0.00 | 0.00 | 0.00 | 75 | |
| 20260506175536 | 9 | 68 | 1.6 | 4.8 | 0.00 | 0.00 | 0.00 | 75 | |
| 20260506174516 | 9 | 68 | 4.8 | 8.0 | 0.00 | 0.00 | 0.00 | 74 | |
| 20260506173556 | 9 | 68 | 8.0 | 11.3 | 0.00 | 0.00 | 0.00 | 74 | |
| 20260506172516 | 9 | 68 | 3.2 | 6.4 | 0.00 | 0.00 | 0.00 | 74 | |
| 20260506171516 | 9 | 68 | 6.4 | 14.5 | 0.00 | 0.00 | 0.00 | 72 | |
| 20260506170516 | 10 | 68 | 4.8 | 8.0 | 0.00 | 0.00 | 0.00 | 72 | |
| 20260506165516 | 10 | 45 | 3.2 | 8.0 | 0.00 | 0.00 | 0.00 | 71 | |
| 20260506164516 | 10 | 68 | 4.8 | 6.4 | 0.00 | 0.00 | 0.00 | 71 | |
| 20260506163516 | 10 | 68 | 6.4 | 11.3 | 0.00 | 0.00 | 0.00 | 72 | |
| 20260506162516 | 10 | 68 | 3.2 | 4.8 | 0.00 | 0.00 | 0.00 | 71 | |
| 20260506161516 | 10 | 68 | 6.4 | 9.7 | 0.00 | 0.00 | 0.00 | 71 | |
| 20260506160536 | 10 | 68 | 9.7 | 11.3 | 0.00 | 0.00 | 0.00 | 71 |